Location: New Town
(33.2710°N, 90.7534°W)
Time: 14:01:14
(UTC+00:00)

Explorer 11/Cluster Stage 4 - Pass Details

Date: 21 May 2021
Orbit: 467 x 1257 km, 28.8° (Epoch: 14 June)

Event Time Altitude Azimuth Distance (km) Brightness Sun altitude
Rises 04:03:21 0° 272° (W) 4,076 10.7 -29.7°
Reaches altitude 10° 04:06:26 10° 264° (W) 3,171 9.9 -30.1°
Enters shadow 04:11:53 32° 225° (SW) 2,018 8.4 -30.6°
Maximum altitude 04:13:33 34° 203° (SSW) 1,929 - -30.8°
Drops below altitude 10° 04:20:39 10° 142° (SE) 3,161 - -31.5°
Sets 04:23:44 0° 133° (SE) 4,060 - -31.8°
